iso_date,epoch_date,Year,Hour,Min,DOY,POS_DOY,Lat,Lon,BP,Ts,Ta,has_bp,has_ts,has_ta,BuoyID,Buoy_Type,Buoy_Owner,Logistics,Hemisphere
2020-03-02T06:00:00Z,1583128800,2020,6,0,62.25,62.25,62.783,-30.872,-999.00,5.5,-999.0,no,yes,no,300234066316010,SVPVHI,AOML,BJARNI_SAEMUN,North
2020-03-02T09:00:00Z,1583139600,2020,9,0,62.375,62.375,62.811,-30.884,-999.00,5.56,-999.0,no,yes,no,300234066316010,SVPVHI,AOML,BJARNI_SAEMUN,North
2020-03-02T12:00:00Z,1583150400,2020,12,0,62.5,62.5,62.845,-30.877,-999.00,5.69,-999.0,no,yes,no,300234066316010,SVPVHI,AOML,BJARNI_SAEMUN,North
2020-03-02T15:00:00Z,1583161200,2020,15,0,62.625,62.625,62.872,-30.855,-999.00,5.82,-999.0,no,yes,no,300234066316010,SVPVHI,AOML,BJARNI_SAEMUN,North
2020-03-02T18:00:00Z,1583172000,2020,18,0,62.75,62.75,62.897,-30.829,-999.00,5.76,-999.0,no,yes,no,300234066316010,SVPVHI,AOML,BJARNI_SAEMUN,North
2020-03-02T21:00:00Z,1583182800,2020,21,0,62.875,62.875,62.944,-30.805,-999.00,5.78,-999.0,no,yes,no,300234066316010,SVPVHI,AOML,BJARNI_SAEMUN,North
2020-03-03T00:00:00Z,1583193600,2020,0,0,63.0,63.0,62.993,-30.775,-999.00,5.57,-999.0,no,yes,no,300234066316010,SVPVHI,AOML,BJARNI_SAEMUN,North
2020-03-03T03:00:00Z,1583204400,2020,3,0,63.125,63.125,63.043,-30.753,-999.00,5.44,-999.0,no,yes,no,300234066316010,SVPVHI,AOML,BJARNI_SAEMUN,North
2020-03-03T06:00:00Z,1583215200,2020,6,0,63.25,63.25,63.097,-30.726,-999.00,5.22,-999.0,no,yes,no,300234066316010,SVPVHI,AOML,BJARNI_SAEMUN,North
2020-03-03T09:00:00Z,1583226000,2020,9,0,63.375,63.375,63.158,-30.719,-999.00,5.3,-999.0,no,yes,no,300234066316010,SVPVHI,AOML,BJARNI_SAEMUN,North
2020-03-03T12:00:00Z,1583236800,2020,12,0,63.5,63.5,63.222,-30.72,-999.00,5.37,-999.0,no,yes,no,300234066316010,SVPVHI,AOML,BJARNI_SAEMUN,North
2020-03-03T15:00:00Z,1583247600,2020,15,0,63.625,63.625,63.276,-30.709,-999.00,5.09,-999.0,no,yes,no,300234066316010,SVPVHI,AOML,BJARNI_SAEMUN,North
2020-03-03T18:00:00Z,1583258400,2020,18,0,63.75,63.75,63.318,-30.722,-999.00,4.9,-999.0,no,yes,no,300234066316010,SVPVHI,AOML,BJARNI_SAEMUN,North
2020-03-03T21:00:00Z,1583269200,2020,21,0,63.875,63.875,63.348,-30.728,-999.00,4.82,-999.0,no,yes,no,300234066316010,SVPVHI,AOML,BJARNI_SAEMUN,North
2020-03-04T00:00:00Z,1583280000,2020,0,0,64.0,64.0,63.364,-30.724,-999.00,4.86,-999.0,no,yes,no,300234066316010,SVPVHI,AOML,BJARNI_SAEMUN,North
2020-03-04T03:00:00Z,1583290800,2020,3,0,64.125,64.125,63.381,-30.713,-999.00,4.88,-999.0,no,yes,no,300234066316010,SVPVHI,AOML,BJARNI_SAEMUN,North
2020-03-04T06:00:00Z,1583301600,2020,6,0,64.25,64.25,63.398,-30.695,-999.00,4.95,-999.0,no,yes,no,300234066316010,SVPVHI,AOML,BJARNI_SAEMUN,North
2020-03-04T09:00:00Z,1583312400,2020,9,0,64.375,64.375,63.424,-30.667,-999.00,5.06,-999.0,no,yes,no,300234066316010,SVPVHI,AOML,BJARNI_SAEMUN,North
2020-03-04T12:00:00Z,1583323200,2020,12,0,64.5,64.5,63.458,-30.656,-999.00,5.04,-999.0,no,yes,no,300234066316010,SVPVHI,AOML,BJARNI_SAEMUN,North
2020-03-04T15:00:00Z,1583334000,2020,15,0,64.625,64.625,63.489,-30.653,-999.00,5.07,-999.0,no,yes,no,300234066316010,SVPVHI,AOML,BJARNI_SAEMUN,North
2020-03-04T18:00:00Z,1583344800,2020,18,0,64.75,64.75,63.505,-30.646,-999.00,5.13,-999.0,no,yes,no,300234066316010,SVPVHI,AOML,BJARNI_SAEMUN,North
2020-03-04T21:00:00Z,1583355600,2020,21,0,64.875,64.875,63.512,-30.644,-999.00,5.15,-999.0,no,yes,no,300234066316010,SVPVHI,AOML,BJARNI_SAEMUN,North
2020-03-05T00:00:00Z,1583366400,2020,0,0,65.0,65.0,63.525,-30.652,-999.00,5.22,-999.0,no,yes,no,300234066316010,SVPVHI,AOML,BJARNI_SAEMUN,North
2020-03-05T03:00:00Z,1583377200,2020,3,0,65.125,65.125,63.537,-30.672,-999.00,5.29,-999.0,no,yes,no,300234066316010,SVPVHI,AOML,BJARNI_SAEMUN,North
2020-03-05T06:00:00Z,1583388000,2020,6,0,65.25,65.25,63.545,-30.7,-999.00,5.18,-999.0,no,yes,no,300234066316010,SVPVHI,AOML,BJARNI_SAEMUN,North
2020-03-05T09:00:00Z,1583398800,2020,9,0,65.375,65.375,63.539,-30.736,-999.00,4.98,-999.0,no,yes,no,300234066316010,SVPVHI,AOML,BJARNI_SAEMUN,North
2020-03-05T12:00:00Z,1583409600,2020,12,0,65.5,65.5,63.526,-30.771,-999.00,4.97,-999.0,no,yes,no,300234066316010,SVPVHI,AOML,BJARNI_SAEMUN,North
2020-03-05T15:00:00Z,1583420400,2020,15,0,65.625,65.625,63.508,-30.774,-999.00,5.16,-999.0,no,yes,no,300234066316010,SVPVHI,AOML,BJARNI_SAEMUN,North
2020-03-05T18:00:00Z,1583431200,2020,18,0,65.75,65.75,63.494,-30.778,-999.00,5.28,-999.0,no,yes,no,300234066316010,SVPVHI,AOML,BJARNI_SAEMUN,North
2020-03-05T21:00:00Z,1583442000,2020,21,0,65.875,65.875,63.486,-30.781,-999.00,5.23,-999.0,no,yes,no,300234066316010,SVPVHI,AOML,BJARNI_SAEMUN,North
2020-03-06T00:00:00Z,1583452800,2020,0,0,66.0,66.0,63.487,-30.78,-999.00,5.17,-999.0,no,yes,no,300234066316010,SVPVHI,AOML,BJARNI_SAEMUN,North
2020-03-06T03:00:00Z,1583463600,2020,3,0,66.125,66.125,63.494,-30.79,-999.00,5.2,-999.0,no,yes,no,300234066316010,SVPVHI,AOML,BJARNI_SAEMUN,North
2020-03-06T06:00:00Z,1583474400,2020,6,0,66.25,66.25,63.508,-30.796,-999.00,5.12,-999.0,no,yes,no,300234066316010,SVPVHI,AOML,BJARNI_SAEMUN,North
2020-03-06T09:00:00Z,1583485200,2020,9,0,66.375,66.375,63.51,-30.818,-999.00,5.36,-999.0,no,yes,no,300234066316010,SVPVHI,AOML,BJARNI_SAEMUN,North
2020-03-06T12:00:00Z,1583496000,2020,12,0,66.5,66.5,63.517,-30.851,-999.00,5.33,-999.0,no,yes,no,300234066316010,SVPVHI,AOML,BJARNI_SAEMUN,North
2020-03-06T15:00:00Z,1583506800,2020,15,0,66.625,66.625,63.522,-30.893,-999.00,5.33,-999.0,no,yes,no,300234066316010,SVPVHI,AOML,BJARNI_SAEMUN,North
2020-03-06T18:00:00Z,1583517600,2020,18,0,66.75,66.75,63.532,-30.949,-999.00,5.35,-999.0,no,yes,no,300234066316010,SVPVHI,AOML,BJARNI_SAEMUN,North
2020-03-06T21:00:00Z,1583528400,2020,21,0,66.875,66.875,63.549,-31.003,-999.00,5.14,-999.0,no,yes,no,300234066316010,SVPVHI,AOML,BJARNI_SAEMUN,North
2020-03-07T00:00:00Z,1583539200,2020,0,0,67.0,67.0,63.543,-31.068,-999.00,5.08,-999.0,no,yes,no,300234066316010,SVPVHI,AOML,BJARNI_SAEMUN,North
2020-03-07T03:00:00Z,1583550000,2020,3,0,67.125,67.125,63.524,-31.142,-999.00,4.91,-999.0,no,yes,no,300234066316010,SVPVHI,AOML,BJARNI_SAEMUN,North
2020-03-07T06:00:00Z,1583560800,2020,6,0,67.25,67.25,63.509,-31.243,-999.00,4.92,-999.0,no,yes,no,300234066316010,SVPVHI,AOML,BJARNI_SAEMUN,North
2020-03-07T09:00:00Z,1583571600,2020,9,0,67.375,67.375,63.482,-31.367,-999.00,5.33,-999.0,no,yes,no,300234066316010,SVPVHI,AOML,BJARNI_SAEMUN,North
2020-03-07T12:00:00Z,1583582400,2020,12,0,67.5,67.5,63.48,-31.513,-999.00,5.11,-999.0,no,yes,no,300234066316010,SVPVHI,AOML,BJARNI_SAEMUN,North
2020-03-07T15:00:00Z,1583593200,2020,15,0,67.625,67.625,63.465,-31.633,-999.00,5.22,-999.0,no,yes,no,300234066316010,SVPVHI,AOML,BJARNI_SAEMUN,North
2020-03-07T18:00:00Z,1583604000,2020,18,0,67.75,67.75,63.452,-31.738,-999.00,5.16,-999.0,no,yes,no,300234066316010,SVPVHI,AOML,BJARNI_SAEMUN,North
2020-03-07T21:00:00Z,1583614800,2020,21,0,67.875,67.875,63.442,-31.832,-999.00,5.11,-999.0,no,yes,no,300234066316010,SVPVHI,AOML,BJARNI_SAEMUN,North
2020-03-08T00:00:00Z,1583625600,2020,0,0,68.0,68.0,63.427,-31.899,-999.00,5.12,-999.0,no,yes,no,300234066316010,SVPVHI,AOML,BJARNI_SAEMUN,North
2020-03-08T03:00:00Z,1583636400,2020,3,0,68.125,68.125,63.412,-31.949,-999.00,5.04,-999.0,no,yes,no,300234066316010,SVPVHI,AOML,BJARNI_SAEMUN,North
2020-03-08T06:00:00Z,1583647200,2020,6,0,68.25,68.25,63.408,-32.018,-999.00,4.93,-999.0,no,yes,no,300234066316010,SVPVHI,AOML,BJARNI_SAEMUN,North
2020-03-08T09:00:00Z,1583658000,2020,9,0,68.375,68.375,63.408,-32.075,-999.00,5.03,-999.0,no,yes,no,300234066316010,SVPVHI,AOML,BJARNI_SAEMUN,North
2020-03-08T12:00:00Z,1583668800,2020,12,0,68.5,68.5,63.41,-32.092,-999.00,5.11,-999.0,no,yes,no,300234066316010,SVPVHI,AOML,BJARNI_SAEMUN,North
2020-03-08T15:00:00Z,1583679600,2020,15,0,68.625,68.625,63.411,-32.108,-999.00,5.1,-999.0,no,yes,no,300234066316010,SVPVHI,AOML,BJARNI_SAEMUN,North
2020-03-08T18:00:00Z,1583690400,2020,18,0,68.75,68.75,63.416,-32.151,-999.00,5.0,-999.0,no,yes,no,300234066316010,SVPVHI,AOML,BJARNI_SAEMUN,North
2020-03-08T21:00:00Z,1583701200,2020,21,0,68.875,68.875,63.424,-32.211,-999.00,5.04,-999.0,no,yes,no,300234066316010,SVPVHI,AOML,BJARNI_SAEMUN,North
2020-03-09T00:00:00Z,1583712000,2020,0,0,69.0,69.0,63.439,-32.276,-999.00,5.05,-999.0,no,yes,no,300234066316010,SVPVHI,AOML,BJARNI_SAEMUN,North
2020-03-09T03:00:00Z,1583722800,2020,3,0,69.125,69.125,63.453,-32.359,-999.00,4.98,-999.0,no,yes,no,300234066316010,SVPVHI,AOML,BJARNI_SAEMUN,North
2020-03-09T06:00:00Z,1583733600,2020,6,0,69.25,69.25,63.454,-32.484,-999.00,4.61,-999.0,no,yes,no,300234066316010,SVPVHI,AOML,BJARNI_SAEMUN,North
2020-03-09T09:00:00Z,1583744400,2020,9,0,69.375,69.375,63.443,-32.645,-999.00,4.35,-999.0,no,yes,no,300234066316010,SVPVHI,AOML,BJARNI_SAEMUN,North
2020-03-09T12:00:00Z,1583755200,2020,12,0,69.5,69.5,63.427,-32.798,-999.00,4.24,-999.0,no,yes,no,300234066316010,SVPVHI,AOML,BJARNI_SAEMUN,North
2020-03-09T15:00:00Z,1583766000,2020,15,0,69.625,69.625,63.409,-32.929,-999.00,4.46,-999.0,no,yes,no,300234066316010,SVPVHI,AOML,BJARNI_SAEMUN,North
2020-03-09T18:00:00Z,1583776800,2020,18,0,69.75,69.75,63.396,-33.05,-999.00,4.24,-999.0,no,yes,no,300234066316010,SVPVHI,AOML,BJARNI_SAEMUN,North
2020-03-09T21:00:00Z,1583787600,2020,21,0,69.875,69.875,63.383,-33.154,-999.00,4.27,-999.0,no,yes,no,300234066316010,SVPVHI,AOML,BJARNI_SAEMUN,North
2020-03-10T00:00:00Z,1583798400,2020,0,0,70.0,70.0,63.38,-33.233,-999.00,4.17,-999.0,no,yes,no,300234066316010,SVPVHI,AOML,BJARNI_SAEMUN,North
2020-03-10T03:00:00Z,1583809200,2020,3,0,70.125,70.125,63.379,-33.308,-999.00,4.17,-999.0,no,yes,no,300234066316010,SVPVHI,AOML,BJARNI_SAEMUN,North
2020-03-10T06:00:00Z,1583820000,2020,6,0,70.25,70.25,63.372,-33.391,-999.00,4.14,-999.0,no,yes,no,300234066316010,SVPVHI,AOML,BJARNI_SAEMUN,North
2020-03-10T09:00:00Z,1583830800,2020,9,0,70.375,70.375,63.365,-33.46,-999.00,4.14,-999.0,no,yes,no,300234066316010,SVPVHI,AOML,BJARNI_SAEMUN,North
2020-03-10T12:00:00Z,1583841600,2020,12,0,70.5,70.5,63.363,-33.503,-999.00,4.1,-999.0,no,yes,no,300234066316010,SVPVHI,AOML,BJARNI_SAEMUN,North
2020-03-10T15:00:00Z,1583852400,2020,15,0,70.625,70.625,63.351,-33.526,-999.00,4.13,-999.0,no,yes,no,300234066316010,SVPVHI,AOML,BJARNI_SAEMUN,North
2020-03-10T18:00:00Z,1583863200,2020,18,0,70.75,70.75,63.334,-33.569,-999.00,4.11,-999.0,no,yes,no,300234066316010,SVPVHI,AOML,BJARNI_SAEMUN,North
2020-03-10T21:00:00Z,1583874000,2020,21,0,70.875,70.875,63.304,-33.628,-999.00,4.08,-999.0,no,yes,no,300234066316010,SVPVHI,AOML,BJARNI_SAEMUN,North
2020-03-11T00:00:00Z,1583884800,2020,0,0,71.0,71.0,63.271,-33.671,-999.00,4.27,-999.0,no,yes,no,300234066316010,SVPVHI,AOML,BJARNI_SAEMUN,North
2020-03-11T03:00:00Z,1583895600,2020,3,0,71.125,71.125,63.233,-33.708,-999.00,4.09,-999.0,no,yes,no,300234066316010,SVPVHI,AOML,BJARNI_SAEMUN,North
2020-03-11T06:00:00Z,1583906400,2020,6,0,71.25,71.25,63.191,-33.753,-999.00,4.07,-999.0,no,yes,no,300234066316010,SVPVHI,AOML,BJARNI_SAEMUN,North
2020-03-11T09:00:00Z,1583917200,2020,9,0,71.375,71.375,63.151,-33.821,-999.00,4.02,-999.0,no,yes,no,300234066316010,SVPVHI,AOML,BJARNI_SAEMUN,North
2020-03-11T12:00:00Z,1583928000,2020,12,0,71.5,71.5,63.113,-33.881,-999.00,4.14,-999.0,no,yes,no,300234066316010,SVPVHI,AOML,BJARNI_SAEMUN,North
2020-03-11T15:00:00Z,1583938800,2020,15,0,71.625,71.625,63.085,-33.91,-999.00,4.06,-999.0,no,yes,no,300234066316010,SVPVHI,AOML,BJARNI_SAEMUN,North
2020-03-11T18:00:00Z,1583949600,2020,18,0,71.75,71.75,63.067,-33.931,-999.00,4.08,-999.0,no,yes,no,300234066316010,SVPVHI,AOML,BJARNI_SAEMUN,North
2020-03-11T21:00:00Z,1583960400,2020,21,0,71.875,71.875,63.049,-33.967,-999.00,4.06,-999.0,no,yes,no,300234066316010,SVPVHI,AOML,BJARNI_SAEMUN,North
2020-03-12T00:00:00Z,1583971200,2020,0,0,72.0,72.0,63.035,-34.009,-999.00,4.07,-999.0,no,yes,no,300234066316010,SVPVHI,AOML,BJARNI_SAEMUN,North
2020-03-12T03:00:00Z,1583982000,2020,3,0,72.125,72.125,63.033,-34.032,-999.00,4.09,-999.0,no,yes,no,300234066316010,SVPVHI,AOML,BJARNI_SAEMUN,North
2020-03-12T06:00:00Z,1583992800,2020,6,0,72.25,72.25,63.039,-34.045,-999.00,4.07,-999.0,no,yes,no,300234066316010,SVPVHI,AOML,BJARNI_SAEMUN,North
2020-03-12T09:00:00Z,1584003600,2020,9,0,72.375,72.375,63.043,-34.058,-999.00,4.18,-999.0,no,yes,no,300234066316010,SVPVHI,AOML,BJARNI_SAEMUN,North
2020-03-12T12:00:00Z,1584014400,2020,12,0,72.5,72.5,63.04,-34.086,-999.00,4.37,-999.0,no,yes,no,300234066316010,SVPVHI,AOML,BJARNI_SAEMUN,North
2020-03-12T15:00:00Z,1584025200,2020,15,0,72.625,72.625,63.043,-34.12,-999.00,4.48,-999.0,no,yes,no,300234066316010,SVPVHI,AOML,BJARNI_SAEMUN,North
2020-03-12T18:00:00Z,1584036000,2020,18,0,72.75,72.75,63.056,-34.163,-999.00,4.41,-999.0,no,yes,no,300234066316010,SVPVHI,AOML,BJARNI_SAEMUN,North
2020-03-12T21:00:00Z,1584046800,2020,21,0,72.875,72.875,63.069,-34.211,-999.00,4.01,-999.0,no,yes,no,300234066316010,SVPVHI,AOML,BJARNI_SAEMUN,North
2020-03-13T00:00:00Z,1584057600,2020,0,0,73.0,73.0,63.065,-34.265,-999.00,3.9,-999.0,no,yes,no,300234066316010,SVPVHI,AOML,BJARNI_SAEMUN,North
2020-03-13T03:00:00Z,1584068400,2020,3,0,73.125,73.125,63.057,-34.331,-999.00,3.92,-999.0,no,yes,no,300234066316010,SVPVHI,AOML,BJARNI_SAEMUN,North
2020-03-13T06:00:00Z,1584079200,2020,6,0,73.25,73.25,63.044,-34.394,-999.00,3.9,-999.0,no,yes,no,300234066316010,SVPVHI,AOML,BJARNI_SAEMUN,North
2020-03-13T09:00:00Z,1584090000,2020,9,0,73.375,73.375,63.032,-34.46,-999.00,3.94,-999.0,no,yes,no,300234066316010,SVPVHI,AOML,BJARNI_SAEMUN,North
2020-03-13T12:00:00Z,1584100800,2020,12,0,73.5,73.5,63.022,-34.521,-999.00,3.92,-999.0,no,yes,no,300234066316010,SVPVHI,AOML,BJARNI_SAEMUN,North
2020-03-13T15:00:00Z,1584111600,2020,15,0,73.625,73.625,63.013,-34.569,-999.00,3.98,-999.0,no,yes,no,300234066316010,SVPVHI,AOML,BJARNI_SAEMUN,North
2020-03-13T18:00:00Z,1584122400,2020,18,0,73.75,73.75,63.011,-34.608,-999.00,3.96,-999.0,no,yes,no,300234066316010,SVPVHI,AOML,BJARNI_SAEMUN,North
2020-03-13T21:00:00Z,1584133200,2020,21,0,73.875,73.875,63.007,-34.653,-999.00,3.97,-999.0,no,yes,no,300234066316010,SVPVHI,AOML,BJARNI_SAEMUN,North
2020-03-14T00:00:00Z,1584144000,2020,0,0,74.0,74.0,63.006,-34.703,-999.00,3.93,-999.0,no,yes,no,300234066316010,SVPVHI,AOML,BJARNI_SAEMUN,North
2020-03-14T03:00:00Z,1584154800,2020,3,0,74.125,74.125,63.002,-34.747,-999.00,3.98,-999.0,no,yes,no,300234066316010,SVPVHI,AOML,BJARNI_SAEMUN,North
2020-03-14T06:00:00Z,1584165600,2020,6,0,74.25,74.25,63.001,-34.79,-999.00,3.99,-999.0,no,yes,no,300234066316010,SVPVHI,AOML,BJARNI_SAEMUN,North
2020-03-14T09:00:00Z,1584176400,2020,9,0,74.375,74.375,63.0,-34.839,-999.00,3.99,-999.0,no,yes,no,300234066316010,SVPVHI,AOML,BJARNI_SAEMUN,North
2020-03-14T12:00:00Z,1584187200,2020,12,0,74.5,74.5,62.998,-34.866,-999.00,4.04,-999.0,no,yes,no,300234066316010,SVPVHI,AOML,BJARNI_SAEMUN,North
2020-03-14T15:00:00Z,1584198000,2020,15,0,74.625,74.625,63.005,-34.875,-999.00,4.03,-999.0,no,yes,no,300234066316010,SVPVHI,AOML,BJARNI_SAEMUN,North
2020-03-14T18:00:00Z,1584208800,2020,18,0,74.75,74.75,63.026,-34.861,-999.00,3.97,-999.0,no,yes,no,300234066316010,SVPVHI,AOML,BJARNI_SAEMUN,North
2020-03-14T21:00:00Z,1584219600,2020,21,0,74.875,74.875,63.025,-34.85,-999.00,3.97,-999.0,no,yes,no,300234066316010,SVPVHI,AOML,BJARNI_SAEMUN,North
2020-03-15T00:00:00Z,1584230400,2020,0,0,75.0,75.0,63.005,-34.841,-999.00,3.94,-999.0,no,yes,no,300234066316010,SVPVHI,AOML,BJARNI_SAEMUN,North
2020-03-15T03:00:00Z,1584241200,2020,3,0,75.125,75.125,63.001,-34.819,-999.00,4.2,-999.0,no,yes,no,300234066316010,SVPVHI,AOML,BJARNI_SAEMUN,North
2020-03-15T06:00:00Z,1584252000,2020,6,0,75.25,75.25,63.008,-34.792,-999.00,4.53,-999.0,no,yes,no,300234066316010,SVPVHI,AOML,BJARNI_SAEMUN,North
2020-03-15T09:00:00Z,1584262800,2020,9,0,75.375,75.375,63.019,-34.775,-999.00,4.64,-999.0,no,yes,no,300234066316010,SVPVHI,AOML,BJARNI_SAEMUN,North
2020-03-15T12:00:00Z,1584273600,2020,12,0,75.5,75.5,63.024,-34.795,-999.00,4.48,-999.0,no,yes,no,300234066316010,SVPVHI,AOML,BJARNI_SAEMUN,North
2020-03-15T15:00:00Z,1584284400,2020,15,0,75.625,75.625,63.025,-34.853,-999.00,4.0,-999.0,no,yes,no,300234066316010,SVPVHI,AOML,BJARNI_SAEMUN,North
2020-03-15T18:00:00Z,1584295200,2020,18,0,75.75,75.75,63.022,-34.93,-999.00,3.95,-999.0,no,yes,no,300234066316010,SVPVHI,AOML,BJARNI_SAEMUN,North
2020-03-15T21:00:00Z,1584306000,2020,21,0,75.875,75.875,63.019,-35.007,-999.00,4.36,-999.0,no,yes,no,300234066316010,SVPVHI,AOML,BJARNI_SAEMUN,North
2020-03-16T00:00:00Z,1584316800,2020,0,0,76.0,76.0,63.009,-35.084,-999.00,4.22,-999.0,no,yes,no,300234066316010,SVPVHI,AOML,BJARNI_SAEMUN,North
2020-03-16T03:00:00Z,1584327600,2020,3,0,76.125,76.125,62.975,-35.157,-999.00,4.08,-999.0,no,yes,no,300234066316010,SVPVHI,AOML,BJARNI_SAEMUN,North
2020-03-16T06:00:00Z,1584338400,2020,6,0,76.25,76.25,62.929,-35.216,-999.00,4.1,-999.0,no,yes,no,300234066316010,SVPVHI,AOML,BJARNI_SAEMUN,North
2020-03-16T09:00:00Z,1584349200,2020,9,0,76.375,76.375,62.888,-35.279,-999.00,4.05,-999.0,no,yes,no,300234066316010,SVPVHI,AOML,BJARNI_SAEMUN,North
2020-03-16T12:00:00Z,1584360000,2020,12,0,76.5,76.5,62.839,-35.313,-999.00,3.86,-999.0,no,yes,no,300234066316010,SVPVHI,AOML,BJARNI_SAEMUN,North
2020-03-16T15:00:00Z,1584370800,2020,15,0,76.625,76.625,62.789,-35.349,-999.00,4.08,-999.0,no,yes,no,300234066316010,SVPVHI,AOML,BJARNI_SAEMUN,North
2020-03-16T18:00:00Z,1584381600,2020,18,0,76.75,76.75,62.744,-35.392,-999.00,3.84,-999.0,no,yes,no,300234066316010,SVPVHI,AOML,BJARNI_SAEMUN,North
2020-03-16T21:00:00Z,1584392400,2020,21,0,76.875,76.875,62.7,-35.404,-999.00,3.77,-999.0,no,yes,no,300234066316010,SVPVHI,AOML,BJARNI_SAEMUN,North
2020-03-17T00:00:00Z,1584403200,2020,0,0,77.0,77.0,62.65,-35.416,-999.00,3.76,-999.0,no,yes,no,300234066316010,SVPVHI,AOML,BJARNI_SAEMUN,North
2020-03-17T03:00:00Z,1584414000,2020,3,0,77.125,77.125,62.593,-35.436,-999.00,3.79,-999.0,no,yes,no,300234066316010,SVPVHI,AOML,BJARNI_SAEMUN,North
2020-03-17T06:00:00Z,1584424800,2020,6,0,77.25,77.25,62.546,-35.475,-999.00,3.81,-999.0,no,yes,no,300234066316010,SVPVHI,AOML,BJARNI_SAEMUN,North
2020-03-17T09:00:00Z,1584435600,2020,9,0,77.375,77.375,62.516,-35.514,-999.00,3.82,-999.0,no,yes,no,300234066316010,SVPVHI,AOML,BJARNI_SAEMUN,North
2020-03-17T12:00:00Z,1584446400,2020,12,0,77.5,77.5,62.493,-35.525,-999.00,3.78,-999.0,no,yes,no,300234066316010,SVPVHI,AOML,BJARNI_SAEMUN,North
2020-03-17T15:00:00Z,1584457200,2020,15,0,77.625,77.625,62.465,-35.536,-999.00,3.76,-999.0,no,yes,no,300234066316010,SVPVHI,AOML,BJARNI_SAEMUN,North
2020-03-17T18:00:00Z,1584468000,2020,18,0,77.75,77.75,62.44,-35.557,-999.00,3.7,-999.0,no,yes,no,300234066316010,SVPVHI,AOML,BJARNI_SAEMUN,North
2020-03-17T21:00:00Z,1584478800,2020,21,0,77.875,77.875,62.427,-35.58,-999.00,3.66,-999.0,no,yes,no,300234066316010,SVPVHI,AOML,BJARNI_SAEMUN,North
2020-03-18T00:00:00Z,1584489600,2020,0,0,78.0,78.0,62.423,-35.572,-999.00,3.68,-999.0,no,yes,no,300234066316010,SVPVHI,AOML,BJARNI_SAEMUN,North
2020-03-18T03:00:00Z,1584500400,2020,3,0,78.125,78.125,62.414,-35.56,-999.00,3.68,-999.0,no,yes,no,300234066316010,SVPVHI,AOML,BJARNI_SAEMUN,North
2020-03-18T06:00:00Z,1584511200,2020,6,0,78.25,78.25,62.4,-35.559,-999.00,3.67,-999.0,no,yes,no,300234066316010,SVPVHI,AOML,BJARNI_SAEMUN,North
2020-03-18T09:00:00Z,1584522000,2020,9,0,78.375,78.375,62.397,-35.572,-999.00,3.64,-999.0,no,yes,no,300234066316010,SVPVHI,AOML,BJARNI_SAEMUN,North
2020-03-18T12:00:00Z,1584532800,2020,12,0,78.5,78.5,62.415,-35.586,-999.00,3.68,-999.0,no,yes,no,300234066316010,SVPVHI,AOML,BJARNI_SAEMUN,North
2020-03-18T15:00:00Z,1584543600,2020,15,0,78.625,78.625,62.435,-35.565,-999.00,3.73,-999.0,no,yes,no,300234066316010,SVPVHI,AOML,BJARNI_SAEMUN,North
2020-03-18T18:00:00Z,1584554400,2020,18,0,78.75,78.75,62.436,-35.513,-999.00,3.73,-999.0,no,yes,no,300234066316010,SVPVHI,AOML,BJARNI_SAEMUN,North
2020-03-18T21:00:00Z,1584565200,2020,21,0,78.875,78.875,62.428,-35.481,-999.00,3.66,-999.0,no,yes,no,300234066316010,SVPVHI,AOML,BJARNI_SAEMUN,North
2020-03-19T00:00:00Z,1584576000,2020,0,0,79.0,79.0,62.435,-35.464,-999.00,3.66,-999.0,no,yes,no,300234066316010,SVPVHI,AOML,BJARNI_SAEMUN,North
2020-03-19T03:00:00Z,1584586800,2020,3,0,79.125,79.125,62.45,-35.454,-999.00,3.68,-999.0,no,yes,no,300234066316010,SVPVHI,AOML,BJARNI_SAEMUN,North
2020-03-19T06:00:00Z,1584597600,2020,6,0,79.25,79.25,62.465,-35.438,-999.00,3.64,-999.0,no,yes,no,300234066316010,SVPVHI,AOML,BJARNI_SAEMUN,North
2020-03-19T09:00:00Z,1584608400,2020,9,0,79.375,79.375,62.481,-35.451,-999.00,3.62,-999.0,no,yes,no,300234066316010,SVPVHI,AOML,BJARNI_SAEMUN,North
2020-03-19T12:00:00Z,1584619200,2020,12,0,79.5,79.5,62.508,-35.517,-999.00,3.87,-999.0,no,yes,no,300234066316010,SVPVHI,AOML,BJARNI_SAEMUN,North
2020-03-19T15:00:00Z,1584630000,2020,15,0,79.625,79.625,62.555,-35.598,-999.00,3.79,-999.0,no,yes,no,300234066316010,SVPVHI,AOML,BJARNI_SAEMUN,North
2020-03-19T18:00:00Z,1584640800,2020,18,0,79.75,79.75,62.604,-35.657,-999.00,4.08,-999.0,no,yes,no,300234066316010,SVPVHI,AOML,BJARNI_SAEMUN,North
2020-03-19T21:00:00Z,1584651600,2020,21,0,79.875,79.875,62.635,-35.645,-999.00,3.85,-999.0,no,yes,no,300234066316010,SVPVHI,AOML,BJARNI_SAEMUN,North
2020-03-20T00:00:00Z,1584662400,2020,0,0,80.0,80.0,62.653,-35.614,-999.00,3.73,-999.0,no,yes,no,300234066316010,SVPVHI,AOML,BJARNI_SAEMUN,North
2020-03-20T03:00:00Z,1584673200,2020,3,0,80.125,80.125,62.668,-35.593,-999.00,3.63,-999.0,no,yes,no,300234066316010,SVPVHI,AOML,BJARNI_SAEMUN,North
2020-03-20T06:00:00Z,1584684000,2020,6,0,80.25,80.25,62.697,-35.596,-999.00,3.75,-999.0,no,yes,no,300234066316010,SVPVHI,AOML,BJARNI_SAEMUN,North
2020-03-20T09:00:00Z,1584694800,2020,9,0,80.375,80.375,62.733,-35.575,-999.00,3.91,-999.0,no,yes,no,300234066316010,SVPVHI,AOML,BJARNI_SAEMUN,North
2020-03-20T12:00:00Z,1584705600,2020,12,0,80.5,80.5,62.771,-35.533,-999.00,4.05,-999.0,no,yes,no,300234066316010,SVPVHI,AOML,BJARNI_SAEMUN,North
2020-03-20T15:00:00Z,1584716400,2020,15,0,80.625,80.625,62.802,-35.498,-999.00,3.93,-999.0,no,yes,no,300234066316010,SVPVHI,AOML,BJARNI_SAEMUN,North
2020-03-20T18:00:00Z,1584727200,2020,18,0,80.75,80.75,62.844,-35.473,-999.00,3.88,-999.0,no,yes,no,300234066316010,SVPVHI,AOML,BJARNI_SAEMUN,North
2020-03-20T21:00:00Z,1584738000,2020,21,0,80.875,80.875,62.885,-35.452,-999.00,3.97,-999.0,no,yes,no,300234066316010,SVPVHI,AOML,BJARNI_SAEMUN,North
2020-03-21T00:00:00Z,1584748800,2020,0,0,81.0,81.0,62.92,-35.418,-999.00,3.95,-999.0,no,yes,no,300234066316010,SVPVHI,AOML,BJARNI_SAEMUN,North
2020-03-21T03:00:00Z,1584759600,2020,3,0,81.125,81.125,62.951,-35.393,-999.00,3.99,-999.0,no,yes,no,300234066316010,SVPVHI,AOML,BJARNI_SAEMUN,North
2020-03-21T06:00:00Z,1584770400,2020,6,0,81.25,81.25,62.97,-35.341,-999.00,3.95,-999.0,no,yes,no,300234066316010,SVPVHI,AOML,BJARNI_SAEMUN,North
2020-03-21T09:00:00Z,1584781200,2020,9,0,81.375,81.375,62.984,-35.289,-999.00,3.97,-999.0,no,yes,no,300234066316010,SVPVHI,AOML,BJARNI_SAEMUN,North
2020-03-21T12:00:00Z,1584792000,2020,12,0,81.5,81.5,62.988,-35.215,-999.00,3.97,-999.0,no,yes,no,300234066316010,SVPVHI,AOML,BJARNI_SAEMUN,North
2020-03-21T15:00:00Z,1584802800,2020,15,0,81.625,81.625,62.981,-35.149,-999.00,3.99,-999.0,no,yes,no,300234066316010,SVPVHI,AOML,BJARNI_SAEMUN,North
2020-03-21T18:00:00Z,1584813600,2020,18,0,81.75,81.75,62.968,-35.095,-999.00,3.98,-999.0,no,yes,no,300234066316010,SVPVHI,AOML,BJARNI_SAEMUN,North
2020-03-21T21:00:00Z,1584824400,2020,21,0,81.875,81.875,62.962,-35.066,-999.00,3.96,-999.0,no,yes,no,300234066316010,SVPVHI,AOML,BJARNI_SAEMUN,North
2020-03-22T00:00:00Z,1584835200,2020,0,0,82.0,82.0,62.973,-35.066,-999.00,4.08,-999.0,no,yes,no,300234066316010,SVPVHI,AOML,BJARNI_SAEMUN,North
2020-03-22T03:00:00Z,1584846000,2020,3,0,82.125,82.125,62.981,-35.107,-999.00,4.04,-999.0,no,yes,no,300234066316010,SVPVHI,AOML,BJARNI_SAEMUN,North
2020-03-22T06:00:00Z,1584856800,2020,6,0,82.25,82.25,62.973,-35.202,-999.00,3.93,-999.0,no,yes,no,300234066316010,SVPVHI,AOML,BJARNI_SAEMUN,North
2020-03-22T09:00:00Z,1584867600,2020,9,0,82.375,82.375,62.958,-35.326,-999.00,3.99,-999.0,no,yes,no,300234066316010,SVPVHI,AOML,BJARNI_SAEMUN,North